Погода в Арпоре

Индия     15°34′03″N   73°46′17″E
темп.,
°C
ветер,
м/с
пор.,
м/с
влажн.,
%
обл.,
%
осадки,
мм/ч
давл.,
гПа
погр.,
м
11 апреля, вс
вс1123:30+28ссз467275 0.0 1011397
02:30+27ссв117385 0.0 1009175
05:30+27св11756 0.0 1010186
08:30+28всв21711 0.0 1012247
11:30+29зюз43710 0.0 1012521
14:30+29з77682 0.0 1008457
17:30+29зсз567098 0.0 1009522
20:30+28з347718 0.0 1011319
12 апреля, пн
пн1223:30+28з22785 0.0 1012327
02:30+27с017840 0.0 1010314
05:30+27вюв228198 0.0 1010189
08:30+28ююв22760 0.0 1013440
11:30+30юз437011 0.0 1013661
14:30+29зюз76726 0.0 1009546
17:30+29зюз237222 0.1 1009385
20:30+29з237382 0.0 1011188
13 апреля, вт
вт1323:30+28зсз127650 0.0 1012226
02:30+28сз337697 0.0 1009323
05:30+28св2274100 0.0 1010301
08:30+29ююз227258 0.0 1012430
11:30+29з436996 0.0 1012542
14:30+30з66655 0.0 1008466
17:30+29сз446514 0.0 1008477
20:30+28зсз237483 0.0 1011318
14 апреля, ср
ср1423:30+28зсз347262 0.0 1011336
02:30+28сз227382 0.0 1009392
05:30+27в3376100 0.0 1010200
08:30+28ююз117069 0.0 1012249
11:30+29з43705 0.0 1012543
14:30+30з66641 0.0 1009512
17:30+29сз66670 0.0 1009723
20:30+28сз44750 0.0 1011491
15 апреля, чт
чт1523:30+27ссз23760 0.0 1011463
02:30+27ссв22784 0.0 1010220
05:30+25всв22875 0.0 1010133
08:30+27в22750 0.0 1012360
11:30+28з54740 0.0 1012550
14:30+29з77670 0.0 1008515
17:30+29сз78700 0.0 1008739
20:30+28сз78765 0.0 1010564